< Cyclone 200716 2008 Season Cyclone 200802 >
Cyclone 200801 (noname)
General InformationDetailed Track InformationTrack Information on Google MapsList of All Images || ResourceGoogle EarthGE AnimationAtom FeedGeoJSON
Detalied Best Track Wind (Time Zone = UTC)
Year Month Day Hour Lat. Long. Wind (kt) Gust (kt) Direc. of Major Storm Axis Radius of Major Storm Axis (nm) Radius of Minor Storm Axis (nm) Direc. of Major Gale Axis Radius of Major Gale Axis (nm) Radius of Minor Gale Axis (nm) Image
2007 7 26 12 -2.9 86.3 20 45 symmetric - - symmetric - - Image
2007 7 26 18 -3.3 86.3 20 45 symmetric - - symmetric - - Image
2007 7 27 00 -3.6 86.2 25 45 symmetric - - symmetric - - Image
2007 7 27 06 -4.0 86.1 25 45 symmetric - - symmetric - - Image
2007 7 27 12 -4.3 86.1 25 45 symmetric - - symmetric - - Image
2007 7 27 18 -4.7 86.0 25 45 symmetric - - symmetric - - Image
2007 7 28 00 -5.2 86.0 25 45 symmetric - - symmetric - - Image
2007 7 28 06 -5.9 86.0 25 45 symmetric - - symmetric - - Image
2007 7 28 12 -6.5 86.5 25 45 symmetric - - symmetric - - Image
2007 7 28 18 -7.2 87.4 35 45 symmetric - - symmetric - - Image
2007 7 29 00 -8.0 88.4 35 45 symmetric - - symmetric - - Image
2007 7 29 06 -8.9 89.0 35 50 symmetric - - symmetric - - Image
2007 7 29 12 -9.7 89.9 40 55 symmetric - - symmetric - - Image
2007 7 29 18 -10.3 90.4 40 55 symmetric - - symmetric - - Image
2007 7 30 00 -10.9 91.2 40 55 symmetric - - symmetric - - Image
2007 7 30 06 -11.6 91.7 35 50 symmetric - - symmetric - - Image
2007 7 30 12 -12.0 91.6 30 45 symmetric - - symmetric - - Image
2007 7 30 18 -12.2 91.0 30 45 symmetric - - symmetric - - Image
2007 7 31 00 -12.1 90.3 25 45 symmetric - - symmetric - - Image
2007 7 31 06 -11.9 89.9 25 45 symmetric - - symmetric - - Image
2007 7 31 12 -11.9 89.6 25 45 symmetric - - symmetric - - Image
2007 7 31 18 -11.9 88.8 25 45 symmetric - - symmetric - - Image
2007 8 1 00 -11.9 87.9 25 45 symmetric - - symmetric - - Image
< Cyclone 200716 2008 Season Cyclone 200802 >

Help